Wind_Speed
10 4 4 5 6 8 10 10 6 6 7 6 4 4 6 5 2 3 3 5 5 3 3 4 3 3 7 5 5 16 20 16 18 19 22 26 27 24 24 27 24 22 25 24 24 23 23 25 24 24 23 22 22 24 24 24 24 23 23 21 19 20 21 20 19 19 19 21 20 19 19 19 18 16 15 13 10 9 13 14 13 14 13 13 12 11
11 4 5 8 9 12 12 10 10 9 10 7 5 5 5 4 3 2 5 8 4 1 3 3 3 4 6 2 4 8 15 14 17 18 19 26 27 24 25 28 24 23 26 24 25 26 24 25 25 24 25 25 24 24 23 23 25 25 23 20 18 19 20 20 19 19 20 21 19 18 18 18 18 17 15 13 12 10 13 14 13 13 13 13 12 11
7 4 7 10 11 13 13 10 10 11 11 7 4 5 4 4 4 2 3 9 4 1 4 3 4 5 3 2 6 4 4 9 14 16 18 26 26 22 28 29 24 24 27 25 26 28 25 25 26 26 26 26 24 23 22 22 24 25 23 20 18 19 20 20 20 19 19 19 18 17 16 15 15 15 13 11 11 11 13 13 13 13 13 13 12 12
5 6 11 12 10 12 13 10 7 10 8 6 5 4 5 6 5 1 2 7 3 0 4 3 1 1 2 1 3 5 4 1 6 10 15 26 25 22 29 28 25 27 27 26 27 28 27 26 27 27 25 25 24 23 22 22 24 23 22 20 19 20 20 20 20 19 19 19 16 15 15 15 13 13 13 12 12 11 13 14 13 14 13 13 12 12
5 9 15 14 11 11 12 10 8 7 5 7 8 5 7 9 6 5 6 6 3 2 5 5 2 2 2 0 1 3 4 3 3 5 10 23 26 23 28 27 25 27 27 27 28 28 28 27 26 26 26 26 27 25 23 23 23 22 21 20 20 21 20 19 19 18 20 20 17 15 17 17 15 13 14 14 13 12 13 14 13 14 14 13 13 12
8 11 16 14 11 11 10 8 8 8 5 6 9 9 12 12 8 12 11 7 4 1 4 6 3 3 2 1 3 2 3 3 1 2 6 16 22 24 28 27 26 27 27 27 28 28 30 28 26 25 26 27 27 26 24 23 22 21 21 21 21 21 20 19 18 18 20 21 19 18 19 20 18 16 16 15 14 13 14 13 13 14 14 14 13 12
6 10 10 12 11 11 9 6 7 10 6 4 10 14 14 13 12 15 14 6 3 3 4 4 3 2 1 2 4 1 2 1 2 2 5 9 15 22 27 27 27 28 27 27 27 28 30 29 28 27 25 25 26 25 24 24 22 21 22 22 21 21 20 20 20 19 19 21 21 20 20 19 18 16 15 14 13 12 13 12 13 14 13 13 13 12
6 10 7 10 12 9 6 4 7 7 5 2 10 18 16 13 14 13 10 3 2 4 4 2 2 2 2 4 4 3 1 2 4 4 5 7 10 18 24 26 28 29 28 27 26 28 30 29 29 27 23 24 26 25 24 24 22 22 22 22 21 21 21 21 20 19 19 20 21 21 20 18 17 15 15 14 13 12 12 11 12 14 13 13 12 11
7 9 9 8 9 6 5 7 6 4 6 4 10 16 13 12 12 10 6 2 1 4 4 4 2 2 2 3 3 4 3 5 6 6 7 9 12 16 23 25 26 30 29 27 27 27 29 29 28 26 25 25 25 24 25 23 22 22 22 22 22 21 21 20 19 19 20 19 19 19 18 17 15 15 14 14 13 15 15 12 12 14 14 13 13 11
6 10 13 8 5 5 6 7 5 11 10 9 15 15 12 11 10 7 5 3 2 1 3 8 7 2 1 3 3 4 5 7 7 6 7 11 15 18 23 24 24 29 29 28 28 27 28 29 27 26 26 25 24 24 25 22 20 22 22 22 22 20 20 20 19 19 19 19 19 18 16 15 15 15 16 15 16 18 17 15 14 14 15 14 13 12
6 11 12 6 2 4 7 4 11 18 15 14 17 14 11 9 6 5 3 3 3 2 3 9 10 4 1 4 6 4 4 7 7 5 7 11 17 20 23 25 24 28 29 29 30 28 28 28 26 26 26 25 26 26 25 23 20 22 23 22 22 21 21 20 19 20 19 19 20 19 18 17 16 16 17 17 18 20 19 17 15 14 15 14 12 11
9 7 6 5 4 3 3 4 13 22 19 12 11 10 9 5 2 4 3 3 1 3 1 6 10 5 2 3 5 5 6 8 8 8 9 11 16 21 24 26 26 30 30 29 31 30 29 29 27 27 26 26 29 28 26 24 22 21 22 22 22 22 21 21 20 20 19 19 20 19 19 19 18 16 16 17 18 19 18 16 15 14 15 15 12 11
5 4 4 8 6 4 2 1 9 15 10 5 8 9 6 3 1 3 2 1 1 2 3 2 7 4 3 2 5 7 8 10 12 13 14 15 18 21 24 26 26 31 31 29 32 33 31 30 28 27 27 28 28 28 26 24 23 23 22 22 23 23 22 21 20 20 19 20 19 19 19 20 19 16 16 16 16 17 16 15 15 14 15 15 14 12
2 6 3 7 4 5 3 0 4 7 5 6 7 6 4 4 2 2 2 1 1 0 3 2 6 3 3 2 5 10 12 14 17 18 19 21 23 22 25 28 27 30 31 28 30 34 32 31 30 29 29 30 28 27 26 24 23 23 23 23 23 22 22 21 21 21 20 20 19 18 18 19 18 16 15 15 15 15 15 14 14 14 14 14 13 12
3 4 3 5 4 6 6 4 4 3 5 9 7 6 5 5 4 3 3 2 2 1 2 1 4 2 1 1 3 8 14 17 18 18 14 13 19 21 22 24 28 32 30 27 28 32 33 32 31 29 29 31 29 27 27 25 23 23 24 24 23 22 22 22 22 22 21 20 19 18 18 17 17 15 15 14 13 14 15 14 13 13 14 13 12 12
5 5 6 9 9 10 8 7 6 5 5 5 5 6 5 4 5 4 3 4 3 2 2 1 2 2 1 1 4 3 9 15 16 14 5 4 10 20 20 19 26 34 32 30 29 30 32 33 31 29 29 31 31 30 28 26 24 23 24 25 23 22 22 22 23 22 21 20 19 18 18 16 16 15 15 14 13 13 13 13 13 13 13 12 12 12
2 3 5 10 10 10 10 7 7 6 4 1 1 2 6 7 8 5 2 3 4 2 1 1 2 1 1 2 2 0 6 11 11 10 8 11 16 21 23 20 23 33 34 32 33 32 31 33 31 30 31 32 32 31 29 27 25 23 23 25 24 23 22 22 22 22 21 20 19 18 17 17 16 15 15 14 14 13 12 12 13 12 12 12 12 11
3 4 5 9 11 10 12 8 5 7 5 1 0 1 4 7 6 5 3 3 2 0 1 2 3 2 2 1 2 4 7 9 11 10 12 17 20 21 24 21 20 31 35 31 32 34 31 32 32 31 32 32 32 31 29 28 27 23 22 23 24 24 23 22 22 22 22 21 20 19 19 19 17 15 15 14 13 13 13 13 13 12 12 11 11 11
3 2 6 8 12 9 10 6 4 6 6 3 2 2 3 4 2 2 3 3 3 0 1 2 2 3 3 3 5 9 10 10 11 11 11 16 21 24 27 21 15 25 35 31 31 34 32 32 33 32 32 32 30 30 29 29 28 25 22 22 23 24 23 21 21 22 22 21 20 19 19 19 18 16 15 14 13 13 13 13 12 12 12 11 10 12
1 1 2 4 7 8 8 3 3 5 5 3 3 2 3 4 3 3 2 3 4 2 1 0 1 3 4 4 8 11 12 11 11 11 11 16 25 29 28 21 15 19 30 32 31 33 33 33 33 32 32 32 30 29 29 29 29 27 24 22 23 24 23 22 22 22 22 21 20 19 19 18 17 17 16 15 14 14 13 13 12 12 12 11 11 11
2 1 2 1 2 4 5 4 5 4 3 2 2 2 1 2 4 4 2 2 4 4 3 2 1 3 3 4 7 10 11 12 12 11 11 17 27 30 27 23 17 14 23 32 31 31 33 33 32 30 31 31 30 28 28 29 29 27 25 23 24 25 25 24 23 22 22 22 21 19 19 18 17 18 18 16 14 14 14 12 12 12 12 12 11 11
1 1 3 2 2 2 3 8 8 6 6 6 3 3 4 2 4 3 0 3 3 3 4 4 2 2 1 2 5 7 9 11 14 14 13 17 26 28 25 24 20 15 21 30 32 30 32 34 31 30 31 32 30 29 29 29 27 25 24 24 24 25 25 24 24 23 22 22 21 19 18 18 17 17 18 16 15 14 14 13 12 11 10 11 11 11
3 1 3 3 3 6 4 9 9 6 6 7 6 5 4 3 4 4 1 3 1 1 2 3 1 1 1 1 2 5 9 13 18 18 16 19 25 28 27 23 19 20 22 27 31 31 31 33 32 30 31 32 31 31 29 27 26 25 23 22 23 25 25 24 24 23 22 22 21 19 17 17 18 18 17 16 15 15 14 13 12 10 10 10 11 11
7 2 3 5 4 7 8 6 10 6 6 4 6 8 6 5 4 5 4 4 2 1 2 3 1 2 1 3 1 6 12 16 20 19 18 20 22 27 31 25 17 19 24 25 28 32 30 32 33 30 31 33 32 31 29 27 27 26 24 22 22 24 23 22 24 23 21 21 22 21 19 17 17 17 17 17 15 15 14 11 10 11 10 9 10 11
5 2 3 4 4 6 7 1 3 2 3 2 3 5 6 8 7 6 4 3 3 5 6 5 1 3 2 1 1 4 7 11 16 19 20 20 22 24 28 25 16 17 24 23 25 31 30 31 34 32 32 34 32 31 29 29 29 27 25 24 22 22 22 22 23 23 20 20 22 22 20 18 17 16 16 16 14 14 14 13 12 12 11 9 10 11
2 2 3 4 2 3 2 2 1 2 4 4 5 5 6 9 7 5 4 3 2 4 6 6 3 2 2 3 4 3 4 6 9 14 16 17 20 22 23 22 17 15 21 21 24 31 30 29 33 33 31 31 30 30 30 29 29 27 26 26 23 23 22 21 23 23 20 20 22 22 20 19 19 17 14 14 14 12 12 13 14 13 11 11 11 11
1 1 1 2 3 3 5 6 6 6 4 5 6 5 4 4 2 1 2 4 5 3 4 4 7 5 4 5 6 5 5 5 5 7 8 6 6 13 18 21 22 19 20 20 22 28 29 29 32 32 31 31 29 30 30 28 28 27 26 26 25 24 23 22 23 23 21 20 20 21 21 18 18 17 15 14 15 14 11 11 12 12 11 12 13 13
1 2 4 3 4 5 7 8 9 8 4 2 3 6 6 5 4 3 1 2 7 7 3 3 10 10 7 7 7 6 6 5 5 9 11 9 10 14 15 16 19 19 19 19 22 27 25 25 31 32 31 32 30 29 29 27 26 27 26 26 25 24 23 23 23 23 22 21 20 20 22 20 18 17 16 14 14 15 14 13 12 11 10 11 13 13
2 1 4 6 7 8 10 10 9 8 5 4 8 9 7 6 7 7 11 10 5 6 6 9 11 10 8 7 6 6 6 7 8 12 15 18 22 20 14 14 18 21 20 18 21 27 22 19 27 33 34 34 32 29 27 26 27 28 28 28 25 23 23 24 23 23 23 22 20 19 21 22 20 19 18 16 13 14 16 15 14 13 12 11 11 12
3 2 4 6 7 9 13 12 7 6 5 8 13 13 14 17 16 16 17 16 11 8 9 9 7 5 2 3 5 8 11 12 13 15 15 17 18 17 15 15 17 22 21 14 15 22 21 19 24 30 34 35 32 29 27 26 28 29 30 30 28 26 27 26 25 24 24 23 21 20 19 20 22 21 20 18 14 15 17 16 13 13 14 14 13 12
2 3 6 5 4 6 10 10 7 7 4 13 16 13 13 19 20 19 17 14 13 12 10 10 10 8 7 7 8 13 15 13 11 14 14 13 14 15 15 14 13 16 18 14 12 12 13 19 25 27 31 32 29 29 28 26 27 28 29 30 29 28 28 28 26 25 25 25 23 21 20 18 19 21 21 19 16 15 18 19 16 13 12 14 15 14
3 4 6 4 3 5 9 8 11 9 6 16 19 15 14 17 16 16 14 12 11 10 10 12 9 5 7 9 12 16 18 14 7 7 10 10 13 14 15 16 15 17 18 17 17 9 8 14 20 21 25 27 26 28 28 26 26 27 27 29 30 30 29 28 27 25 24 26 26 24 23 20 18 18 21 22 20 18 19 20 19 17 13 14 16 16
3 2 3 3 3 5 9 10 13 12 9 11 14 13 14 15 15 15 14 14 12 9 7 7 4 3 5 8 11 14 16 14 7 4 6 7 10 9 11 15 14 16 18 16 17 14 11 13 17 19 22 25 26 27 25 24 25 26 26 27 28 29 30 29 28 27 26 28 29 27 26 23 21 20 22 25 25 24 23 22 22 22 19 16 16 17
4 3 1 1 1 3 9 8 9 11 9 6 8 11 13 16 18 17 14 14 13 9 7 6 4 5 8 10 12 13 14 11 6 5 7 6 6 4 5 8 9 11 12 10 10 11 11 13 16 20 22 22 22 23 23 22 23 23 25 26 26 28 30 30 30 31 33 33 33 31 28 26 25 23 23 25 26 26 26 26 25 24 24 22 20 19
3 5 3 2 1 1 5 6 6 7 5 5 8 11 11 15 19 18 16 15 14 12 10 9 7 8 11 14 17 19 18 15 12 11 11 9 9 8 7 7 8 8 8 8 8 8 9 11 15 20 21 18 17 19 21 21 20 20 23 25 26 27 30 31 31 34 37 36 34 32 30 28 28 27 25 25 25 26 26 26 24 24 25 25 25 24
2 4 3 2 2 0 2 3 4 3 1 8 11 10 8 9 12 14 14 14 13 12 10 9 9 10 13 16 19 23 24 23 22 20 17 15 16 16 13 11 9 8 9 11 11 10 12 14 16 18 20 19 17 19 20 20 19 20 21 23 25 26 26 27 29 31 32 32 29 29 29 29 29 28 27 26 25 25 25 25 24 23 25 26 27 27
2 2 2 1 2 1 1 2 4 5 2 8 8 8 9 8 7 10 9 8 10 12 11 8 8 9 11 14 15 20 25 24 19 19 18 16 16 16 14 11 8 6 6 8 9 8 8 9 13 17 20 22 22 21 22 22 21 20 21 21 22 24 23 22 22 24 24 24 23 25 26 28 28 27 26 25 25 26 26 25 24 23 23 24 25 26
3 2 0 1 1 1 3 3 3 2 1 4 6 9 12 13 7 9 9 5 8 13 14 9 6 8 8 10 9 10 14 15 8 7 12 13 12 11 10 10 8 6 6 5 4 4 4 4 6 10 14 19 21 19 20 22 22 22 21 18 18 21 23 21 20 20 21 21 21 22 23 24 25 24 24 23 24 25 24 23 23 22 21 21 22 23
1 5 2 0 1 2 2 4 2 2 1 3 8 10 14 18 12 4 7 4 7 12 16 11 7 8 8 9 10 7 7 7 2 3 10 13 13 14 14 15 14 10 8 6 3 2 2 3 4 5 8 10 12 12 12 12 14 18 19 16 15 18 20 20 20 20 22 23 22 21 21 20 19 20 20 21 22 22 23 24 24 23 22 22 21 21
2 3 2 2 3 3 1 3 2 2 1 5 8 11 14 14 10 5 4 2 7 11 15 12 9 9 8 9 12 10 5 4 5 8 13 16 17 18 18 20 21 19 17 14 10 9 9 6 3 4 5 4 5 6 6 3 5 10 13 13 14 14 14 14 16 19 21 22 21 21 20 17 16 16 17 18 19 19 20 22 22 21 22 22 21 21
2 1 1 0 2 3 1 3 2 2 3 7 10 15 16 8 2 6 1 4 6 11 14 13 12 11 9 11 13 10 7 10 15 16 16 19 20 19 20 22 23 22 22 20 17 16 14 12 10 8 7 6 6 5 3 4 6 7 9 10 11 10 10 10 10 11 12 12 13 16 16 14 14 14 13 11 11 12 14 15 15 18 21 20 18 17
2 2 3 3 3 3 2 3 2 3 6 12 11 17 19 5 3 3 1 1 9 12 11 13 13 12 12 15 17 16 16 18 18 17 18 20 18 16 17 20 20 20 21 20 19 18 16 16 15 13 12 11 10 9 8 7 8 8 8 8 8 8 10 10 11 11 9 9 9 10 9 7 8 9 8 6 7 9 11 11 11 13 14 13 11 9
2 2 3 3 3 3 3 5 3 1 9 15 9 10 14 6 4 4 6 9 11 10 9 11 11 11 12 15 18 19 18 18 15 15 17 19 17 15 15 16 17 20 19 17 18 18 18 18 16 13 12 11 11 11 10 9 11 12 10 10 12 13 13 12 12 12 12 12 12 12 11 11 11 10 12 15 16 16 17 17 15 14 14 13 12 10
3 2 2 1 2 2 3 3 3 2 7 15 12 7 7 9 10 10 11 11 10 10 9 9 10 11 11 13 15 16 15 14 12 12 13 13 12 12 13 13 13 14 13 11 14 16 15 14 13 12 11 11 11 10 9 8 11 13 12 12 13 13 13 12 11 11 12 13 13 14 14 15 16 17 16 15 14 13 15 15 15 15 14 13 12 11
2 4 7 4 3 4 5 4 6 10 13 18 19 15 14 15 13 12 13 11 10 11 10 9 9 10 11 11 11 11 11 11 11 11 10 10 9 10 11 10 9 9 9 9 11 11 9 9 10 11 11 11 11 10 8 8 10 12 12 12 12 11 10 9 7 8 11 12 11 12 11 11 12 13 13 12 11 10 11 13 13 13 13 14 15 13
6 11 12 7 4 7 10 10 12 15 17 19 20 18 17 17 15 14 14 13 11 11 10 10 8 7 9 10 9 9 11 11 10 9 10 12 13 14 12 10 9 10 11 11 11 8 7 9 10 10 11 11 10 9 9 9 9 10 11 10 10 10 9 8 6 7 10 12 11 11 12 11 10 9 10 11 12 10 9 11 11 10 11 13 14 14
6 9 7 4 4 5 6 8 10 13 17 19 19 18 18 17 16 15 14 14 12 11 10 11 10 8 7 8 8 10 12 12 11 11 12 14 13 13 11 10 10 9 9 10 10 8 7 9 10 10 10 11 10 9 9 8 7 7 8 8 8 8 8 7 6 6 9 11 11 11 12 10 7 7 8 9 9 9 9 9 8 8 9 9 8 9
4 8 5 3 4 4 4 9 15 17 18 18 17 16 17 16 14 15 16 16 15 13 11 11 13 13 11 10 10 11 12 12 12 13 14 11 8 8 11 11 9 7 7 10 10 8 8 10 10 8 8 9 9 8 8 7 5 5 6 6 6 6 7 7 6 6 8 9 8 10 11 7 6 7 6 5 6 7 6 6 5 5 8 8 6 6
2 5 4 4 6 5 5 11 17 16 14 15 16 16 15 15 14 14 15 16 16 15 13 12 12 13 13 13 12 12 11 12 12 14 15 12 9 11 14 13 10 10 10 10 8 7 8 9 8 7 5 5 6 7 6 5 3 4 5 5 4 5 6 6 6 7 8 8 9 12 11 7 6 8 7 5 6 7 6 6 5 4 6 7 8 8
3 3 4 5 5 2 2 8 12 9 7 11 15 15 14 15 15 14 14 14 15 14 13 13 12 12 11 9 9 10 11 11 10 12 14 13 12 14 16 14 12 12 12 11 10 9 6 5 4 4 3 3 4 5 5 3 2 3 4 4 3 4 4 6 7 8 7 8 10 13 13 9 7 7 6 5 5 6 6 6 6 5 5 6 8 9
4 3 3 5 5 3 5 11 15 14 11 12 14 15 14 14 14 14 13 12 12 12 14 14 13 10 8 8 7 8 10 9 8 10 13 13 13 14 14 14 13 11 11 12 11 7 5 4 4 3 2 2 2 3 4 4 2 1 4 4 3 2 2 4 6 6 7 7 10 13 14 12 9 7 5 5 5 6 6 6 5 5 5 6 8 9
Wind_Direction
190 166 180 201 222 225 222 218 194 137 120 117 117 124 134 119 126 149 122 151 171 151 147 166 176 205 199 238 249 181 170 170 174 165 156 153 161 172 157 158 175 167 156 159 157 154 153 152 153 155 158 158 158 159 161 161 160 165 172 173 173 169 167 166 162 160 156 150 147 147 149 155 160 164 166 168 181 176 159 161 163 162 161 159 159 159
195 198 206 206 215 230 234 213 182 142 128 134 139 127 114 110 130 142 144 164 192 161 144 165 163 197 211 280 333 169 171 181 177 171 161 154 165 174 156 161 178 165 155 159 157 155 154 154 156 156 159 161 162 163 165 166 166 170 176 177 172 168 168 165 161 160 156 153 153 152 154 159 163 169 172 172 179 174 160 165 168 166 168 167 165 167
192 223 219 214 215 226 243 229 182 146 137 139 137 130 120 122 108 52 146 157 182 213 156 190 171 182 232 333 360 30 160 187 175 176 170 158 168 172 156 165 178 161 156 163 158 155 157 157 159 162 164 166 167 168 168 171 173 172 175 178 170 166 169 165 161 160 156 154 154 153 154 160 163 167 173 173 174 172 164 166 170 170 173 169 165 166
184 215 218 224 224 219 236 234 170 134 143 150 149 143 137 154 144 98 179 158 176 258 144 166 158 187 309 2 354 9 34 88 165 185 177 164 172 172 159 168 175 160 161 167 159 157 160 160 163 167 169 166 164 170 173 172 174 174 177 178 167 165 169 166 165 162 157 154 155 158 156 161 170 168 166 168 171 169 164 169 172 171 172 168 163 163
217 206 201 215 230 224 231 222 163 136 161 165 164 159 145 164 160 122 141 151 135 44 118 127 95 258 269 294 294 343 26 45 135 192 184 173 178 172 162 169 171 164 166 168 161 161 162 162 166 170 172 168 164 172 175 172 174 175 177 174 166 167 169 167 167 163 161 158 162 171 163 165 178 175 168 169 172 170 169 173 169 168 170 167 165 166
245 218 192 196 223 231 234 220 173 153 163 182 176 163 154 158 127 115 134 143 127 143 166 146 147 217 224 232 255 315 23 28 100 188 194 185 182 170 164 168 169 166 169 170 165 164 164 163 167 170 173 172 171 175 175 174 176 174 171 170 168 169 168 169 169 166 167 166 169 176 171 171 179 179 175 176 179 174 170 172 168 166 169 165 167 171
249 243 202 184 204 224 231 228 198 171 162 198 170 150 147 142 125 130 145 150 136 162 176 157 162 193 220 237 231 229 49 321 277 210 210 207 189 173 167 168 169 167 170 173 169 166 165 165 167 170 172 175 177 179 178 179 178 173 171 170 171 171 169 173 173 171 171 171 175 178 176 178 182 181 177 179 188 177 164 168 168 168 170 168 170 173
227 252 242 189 193 212 208 214 236 202 165 177 138 135 136 132 133 139 140 132 98 121 135 161 138 122 216 223 201 149 117 265 256 226 225 231 213 185 173 171 172 171 172 174 172 169 167 166 169 172 173 176 180 179 180 184 180 173 172 172 173 172 172 176 177 176 175 174 176 178 180 183 183 181 171 172 181 166 161 176 174 172 174 170 171 177
200 232 252 214 194 188 186 211 223 130 98 108 113 117 124 121 121 120 103 62 67 113 149 199 171 111 216 209 142 146 183 232 230 222 222 224 229 203 181 179 176 171 175 178 175 172 169 169 171 172 173 177 183 182 180 183 179 174 174 172 174 175 175 177 178 179 178 175 174 174 178 181 178 176 169 169 168 156 168 195 192 179 177 173 175 182
192 220 240 232 182 165 200 217 156 98 97 124 113 101 97 93 89 89 86 72 83 114 196 193 185 159 199 182 156 173 202 219 213 215 219 212 225 214 188 186 182 172 175 179 178 175 171 172 173 174 175 177 182 184 182 184 179 175 176 175 176 177 176 177 178 178 178 178 177 173 175 175 172 174 174 174 169 163 177 197 198 183 177 179 182 182
251 226 230 228 170 187 205 181 110 115 128 125 110 99 90 83 73 75 66 65 91 261 216 183 189 191 206 190 185 187 193 204 196 198 217 211 222 217 192 189 187 177 178 179 177 178 175 175 175 177 178 178 182 185 186 188 183 178 179 178 177 175 175 177 177 177 177 179 180 178 175 173 175 181 181 179 175 176 184 193 195 185 178 185 189 183
258 230 203 185 206 249 222 144 119 130 139 130 119 118 101 92 70 67 37 27 118 266 281 174 187 201 237 205 195 199 185 190 190 192 206 205 214 213 195 192 190 179 179 180 176 177 176 174 175 178 178 179 182 185 188 191 187 183 183 181 177 175 176 178 179 179 177 178 181 181 177 174 181 187 184 183 182 185 189 190 191 186 181 186 190 187
254 249 173 154 186 241 305 116 131 131 136 134 133 126 102 113 145 84 82 342 189 271 333 161 171 197 262 221 199 210 198 189 190 198 205 197 203 208 198 194 189 179 180 182 177 176 177 175 176 179 179 179 181 183 188 191 189 188 187 183 179 177 178 179 179 179 177 179 182 182 178 177 186 190 185 186 188 190 193 190 189 187 185 188 189 190
263 274 196 124 147 204 217 203 146 140 155 173 156 137 115 131 146 115 129 196 228 151 10 109 154 179 282 237 203 211 208 196 190 199 207 199 200 206 203 197 188 180 182 182 178 176 177 179 179 181 181 180 180 183 187 190 190 191 190 186 181 178 179 179 179 180 180 181 180 183 183 181 187 191 188 188 188 191 194 192 190 187 189 192 191 190
198 264 185 133 142 177 199 223 216 223 196 185 171 140 128 135 143 141 142 179 229 159 74 101 167 192 252 240 251 228 209 195 192 202 206 201 205 206 205 199 185 180 183 184 181 177 178 182 182 183 184 182 181 182 185 188 192 193 192 189 183 179 180 180 180 181 182 181 179 183 188 188 189 189 189 190 187 190 193 194 194 190 191 194 194 193
207 220 176 175 169 163 197 219 209 259 267 201 154 121 140 161 136 127 156 166 173 150 115 182 217 222 196 235 313 278 192 180 191 207 181 131 205 211 218 212 187 180 183 186 186 180 178 182 181 182 186 184 181 181 185 189 194 195 193 191 186 182 181 181 181 181 182 183 182 183 186 190 193 189 189 190 187 188 191 192 193 192 192 192 194 199
214 234 191 179 171 170 203 219 182 199 255 301 67 126 161 154 128 114 135 144 140 135 115 275 267 323 315 263 305 160 165 166 186 205 173 159 188 211 229 229 196 182 181 185 187 182 180 182 181 184 187 183 179 181 186 191 197 199 196 192 188 185 184 183 182 182 182 186 186 184 185 189 191 191 190 189 187 186 184 186 190 190 191 191 194 203
178 285 275 185 170 177 199 223 213 200 208 153 338 272 136 132 128 123 121 130 133 101 160 220 242 228 227 241 165 170 182 180 186 195 186 180 187 209 227 229 203 184 181 185 185 182 183 184 183 187 187 182 181 184 189 193 197 202 200 194 189 187 188 186 184 184 184 187 188 185 186 188 190 191 190 190 190 186 181 185 189 189 192 192 192 200
176 299 293 190 167 165 179 211 258 242 239 223 244 259 128 134 159 135 131 151 145 83 209 211 252 228 212 198 170 180 193 191 185 188 187 183 193 212 221 220 206 186 183 185 183 181 183 185 185 187 187 184 184 189 194 196 199 203 203 198 193 191 191 188 186 186 187 190 191 188 189 190 191 193 191 192 192 189 188 189 187 189 195 196 194 198
332 69 274 201 159 148 154 173 224 237 256 272 291 281 143 149 169 158 159 154 136 148 201 134 340 244 225 197 177 182 192 190 183 187 190 187 193 206 213 208 200 191 187 183 181 182 184 183 184 187 188 187 186 190 196 197 199 203 203 202 198 194 194 192 189 190 191 192 193 192 193 193 193 192 193 194 192 192 195 192 189 192 196 197 196 199
329 34 275 264 118 147 162 179 192 192 192 208 284 290 200 157 151 150 170 173 145 149 169 142 205 258 238 180 175 181 186 188 187 186 189 193 193 200 208 199 187 201 198 184 181 184 184 182 183 187 188 187 187 191 194 193 195 198 201 203 201 197 197 195 193 193 194 194 196 196 196 195 192 191 193 196 192 192 196 194 194 196 196 197 198 200
22 336 298 310 354 309 198 178 184 194 179 165 175 240 249 204 139 112 66 224 181 148 160 160 170 297 301 184 187 176 172 183 191 187 185 193 193 195 200 189 181 211 209 187 183 185 183 183 184 186 186 185 187 190 188 188 191 194 198 202 201 198 199 198 195 196 196 194 197 199 200 197 194 193 195 195 192 193 196 195 192 194 195 200 206 206
336 238 323 321 310 311 270 186 181 218 210 170 171 206 232 221 148 117 169 227 246 78 133 118 91 321 301 258 190 150 156 173 185 187 183 189 192 192 193 187 194 219 208 185 184 186 183 185 186 188 188 185 186 187 185 187 191 195 197 199 200 199 199 197 196 198 199 195 193 197 205 204 198 196 195 194 195 194 192 191 191 193 198 205 214 216
339 347 354 331 306 311 298 202 170 208 234 190 189 196 203 223 193 156 176 175 138 192 130 77 17 248 254 322 19 142 159 169 178 186 183 182 188 191 191 193 207 214 196 184 185 186 187 188 188 191 192 187 185 185 186 189 193 196 198 197 198 201 199 196 196 202 205 196 189 194 206 207 201 200 199 195 196 192 185 190 202 205 208 210 210 213
346 358 14 1 340 334 327 327 137 211 278 282 230 202 201 219 206 179 177 149 154 176 143 121 210 240 225 319 38 128 147 155 166 177 180 179 183 189 192 198 209 201 191 190 189 188 190 190 189 193 192 187 187 188 190 193 194 196 198 197 198 199 199 196 197 205 208 198 191 195 203 202 200 206 205 197 196 194 187 193 210 216 214 212 210 209
357 313 27 57 16 340 325 304 310 286 306 305 270 243 231 226 212 179 143 120 189 177 127 130 173 229 222 169 146 128 107 111 140 161 172 178 183 192 198 205 213 202 194 198 192 187 191 193 192 193 191 188 189 191 193 195 194 194 197 198 198 198 198 195 197 206 210 203 198 199 202 200 197 203 207 198 199 204 200 197 207 217 212 208 219 220
35 302 328 144 181 225 228 233 245 245 258 268 265 284 282 257 269 266 161 156 173 129 80 140 149 149 201 177 157 158 135 119 106 123 127 107 145 190 199 204 212 209 203 204 194 186 190 194 194 193 190 189 190 192 196 196 193 194 196 196 195 198 201 197 198 206 211 211 209 203 202 203 198 197 203 203 199 204 213 211 209 218 217 213 221 224
57 354 306 286 245 244 250 259 269 274 270 254 298 323 310 290 296 305 355 140 148 116 73 176 148 147 186 183 164 163 143 134 123 124 131 137 169 189 187 185 197 207 211 210 198 189 187 192 195 194 191 190 190 193 196 196 195 195 196 194 194 198 201 198 199 206 212 217 218 207 201 203 200 194 199 208 204 198 206 219 223 227 228 223 224 224
48 333 311 321 314 307 306 291 278 286 304 23 25 9 5 358 355 26 40 38 78 122 156 177 156 150 176 175 155 139 120 133 149 150 165 182 188 187 174 167 182 199 209 211 199 190 186 189 192 192 191 190 189 189 190 191 195 196 195 193 192 194 196 197 200 207 212 217 222 216 208 204 202 197 195 204 212 204 202 213 227 233 231 229 229 229
36 323 320 325 309 311 311 296 276 286 316 40 38 23 43 51 40 40 42 35 42 84 134 147 121 98 119 120 114 117 121 136 148 149 162 180 178 169 166 170 183 196 203 207 195 187 188 191 186 182 182 183 183 185 186 190 194 195 195 194 191 190 192 194 199 206 214 219 221 224 220 209 205 203 195 197 211 213 207 207 215 224 228 229 230 231
39 322 318 318 301 302 298 295 309 310 350 56 40 18 48 61 50 42 39 33 42 64 81 77 68 48 16 35 80 103 108 114 132 135 140 154 152 147 155 158 165 185 194 201 192 170 169 180 176 173 176 176 178 183 187 193 197 198 199 198 195 195 197 198 199 202 212 219 219 221 222 216 212 206 197 199 209 213 212 214 215 214 212 214 218 224
356 330 326 334 340 308 301 336 7 357 40 58 38 23 44 59 60 54 44 35 38 52 57 53 56 33 354 18 53 70 70 59 52 94 107 125 133 140 161 163 160 169 180 197 204 178 128 148 155 158 170 177 184 190 192 195 198 199 201 201 201 204 206 207 205 202 207 215 217 216 215 215 215 208 201 204 209 209 211 218 222 220 207 195 197 205
321 317 335 354 8 311 316 3 37 39 48 45 27 31 49 59 68 68 56 46 38 37 54 55 44 14 7 25 43 56 64 58 41 54 81 123 137 145 178 181 169 164 167 186 204 196 171 163 154 149 165 180 190 195 195 196 199 202 206 207 209 211 210 210 212 211 209 211 214 214 211 211 213 210 206 207 209 209 210 214 220 223 218 206 199 200
322 320 313 328 325 309 322 352 55 62 56 39 20 41 66 70 68 65 58 53 44 37 50 54 46 41 37 47 59 61 64 69 72 65 60 84 119 129 171 174 165 167 166 171 189 183 172 179 176 169 174 181 187 192 195 198 203 207 207 208 211 214 211 209 211 213 213 212 213 212 210 209 212 213 211 210 211 213 215 218 220 222 222 222 219 214
358 342 346 309 266 325 332 353 58 67 62 60 31 32 64 79 75 68 57 50 45 41 40 36 39 57 59 68 82 82 73 66 62 54 49 62 89 104 114 127 140 160 166 164 167 148 133 156 178 182 184 184 183 190 195 199 204 206 203 205 209 212 213 210 209 211 212 211 211 210 209 208 211 216 216 214 215 217 219 222 223 223 225 229 230 228
24 338 345 303 284 108 338 1 90 133 27 41 33 14 27 63 75 68 51 38 36 36 35 30 34 54 61 66 85 98 93 77 59 46 45 58 71 80 93 112 131 151 162 159 150 131 123 135 154 172 187 195 194 193 197 201 205 206 206 208 207 208 208 208 208 210 210 209 209 210 211 211 212 217 218 216 216 219 221 222 224 224 223 226 231 233
59 342 355 322 297 82 69 48 109 147 6 20 19 355 358 23 79 95 69 31 25 32 34 32 35 46 54 62 86 106 100 84 63 44 46 61 68 70 77 87 92 99 120 142 145 138 130 130 142 160 181 197 202 204 205 207 209 210 210 209 206 204 203 203 205 208 210 211 211 210 213 216 217 218 218 216 215 219 223 223 223 223 222 224 228 232
152 181 307 13 322 11 86 78 73 107 39 356 340 334 346 359 37 109 102 36 12 32 35 31 39 46 49 60 80 107 96 81 66 49 63 78 87 90 89 84 83 82 75 90 128 147 158 164 159 163 176 190 198 204 209 211 211 213 215 216 215 213 210 210 211 209 212 217 216 214 216 218 218 218 218 216 215 216 219 220 219 220 223 226 229 232
198 171 181 184 308 328 87 101 73 91 111 323 322 331 343 349 355 62 95 28 350 26 37 33 43 47 41 47 53 67 82 76 72 109 107 110 110 112 111 101 99 104 94 90 104 98 136 199 211 194 190 191 189 195 209 210 205 210 214 215 217 211 206 209 212 211 213 217 217 220 223 222 221 223 225 223 219 216 218 221 220 222 226 230 232 234
295 159 177 222 253 275 117 95 77 105 63 326 322 336 339 336 345 26 77 339 332 18 37 35 41 44 33 44 53 53 64 112 145 134 126 126 118 113 111 106 104 106 104 108 113 95 86 97 128 166 185 180 162 185 214 190 166 198 206 201 203 200 190 194 205 210 216 220 221 227 233 230 224 223 225 227 225 221 223 226 225 226 230 230 229 232
349 37 16 284 278 284 104 86 91 124 27 327 330 357 350 320 1 55 123 256 347 29 43 39 44 52 51 66 79 82 90 111 125 128 125 122 116 111 114 117 117 114 110 109 113 109 103 101 101 106 115 112 116 135 151 122 136 170 184 184 193 190 165 153 164 186 207 216 219 228 237 237 228 224 227 231 229 222 221 223 221 221 225 224 221 223
343 346 357 6 349 347 63 73 105 117 3 334 337 13 14 357 157 77 126 95 38 43 49 48 56 66 70 83 97 105 110 112 117 125 125 121 116 114 121 126 124 122 118 114 114 116 116 112 106 100 101 104 107 106 106 115 129 143 154 156 150 138 130 128 126 134 148 151 160 185 205 211 215 217 202 162 143 155 162 161 168 184 192 190 183 176
324 17 24 16 8 32 65 51 75 142 349 351 359 18 17 34 127 87 73 72 56 49 49 54 66 76 84 99 107 111 119 124 126 130 131 128 124 120 122 126 127 129 130 126 123 124 122 120 119 112 106 107 109 110 111 114 118 123 131 132 122 117 122 129 125 119 120 122 131 146 150 138 133 139 133 120 113 116 123 125 126 130 133 135 131 117
329 349 39 7 346 44 85 48 76 125 20 29 59 84 56 70 94 88 81 76 61 56 57 61 76 86 94 109 115 117 123 128 132 134 133 133 132 128 126 128 133 137 138 137 138 138 134 131 128 122 117 115 114 116 121 123 123 126 128 128 126 126 129 129 126 118 110 109 115 122 124 121 121 122 122 118 112 112 116 118 117 117 122 124 117 101
33 94 94 70 25 63 96 109 104 94 68 57 71 89 87 81 83 87 91 88 72 69 77 82 86 96 106 110 115 120 123 127 135 135 128 124 123 123 123 125 132 138 132 126 133 138 134 124 114 109 111 111 108 111 117 119 122 126 129 128 126 131 135 132 132 126 111 105 111 115 111 108 112 116 115 109 101 104 120 127 125 125 130 130 126 124
104 106 98 86 83 85 92 109 113 100 87 76 73 77 81 80 79 82 88 91 81 74 82 93 98 113 123 122 127 133 132 135 138 131 122 121 119 115 112 110 115 119 113 110 115 116 113 113 107 103 105 105 102 106 109 109 111 115 120 123 123 125 127 126 128 125 113 108 110 111 104 95 88 89 96 100 99 102 121 135 132 132 140 141 140 143
74 89 97 113 130 112 100 111 108 96 92 89 81 76 76 76 76 76 78 85 88 77 73 90 107 123 135 145 153 147 141 142 142 133 127 125 122 121 124 125 122 114 113 124 129 116 101 102 99 97 100 100 99 103 105 106 110 112 115 122 124 118 113 118 129 134 131 130 125 118 114 107 98 96 99 107 116 117 119 126 127 134 152 163 161 157
74 85 89 101 107 108 118 111 98 88 88 90 87 84 81 78 76 75 74 80 86 79 67 77 101 119 133 145 148 145 146 152 152 145 140 138 134 136 143 145 137 131 146 155 150 136 125 120 114 110 106 97 95 102 106 102 95 88 92 102 111 111 112 123 134 136 143 150 142 129 127 119 112 119 116 110 130 138 135 139 148 154 166 178 181 172
131 113 107 105 103 104 119 117 107 98 93 96 96 92 90 87 85 82 81 82 83 80 73 71 83 103 122 137 145 149 153 158 159 154 153 157 160 152 151 154 157 162 170 176 179 174 160 147 140 136 124 107 105 107 102 91 69 55 68 83 97 111 121 133 143 149 157 158 148 144 145 132 117 129 131 119 132 149 157 167 175 171 170 176 178 179
81 125 127 121 123 131 145 133 126 116 104 107 108 106 104 101 95 90 88 86 83 81 82 81 78 81 94 113 139 153 154 158 165 165 165 169 169 162 161 165 166 165 168 177 192 200 189 162 143 129 107 98 113 117 113 111 89 41 44 57 84 116 137 148 154 162 169 162 151 154 160 160 149 147 142 127 136 153 155 152 157 164 173 185 193 201
98 163 154 121 130 147 135 134 134 126 113 109 111 112 114 113 107 99 93 88 83 81 83 86 86 81 75 79 101 139 157 164 171 176 180 183 178 175 178 180 175 166 164 174 186 194 182 158 136 119 111 104 124 155 162 167 189 341 12 28 55 92 131 152 158 164 165 158 156 162 166 167 168 169 166 162 171 180 177 174 179 188 201 211 215 223
Height
1494 1501 1505 1506 1505 1501 1498 1496 1497 1502 1504 1509 1514 1517 1521 1528 1531 1527 1525 1525 1525 1532 1535 1533 1536 1536 1534 1531 1528 1527 1529 1530 1532 1534 1535 1538 1541 1544 1545 1548 1550 1551 1553 1555 1557 1559 1561 1563 1565 1567 1568 1569 1571 1573 1574 1576 1577 1578 1578 1579 1581 1581 1583 1583 1585 1586 1587 1589 1590 1591 1593 1594 1595 1596 1597 1598 1598 1599 1600 1601 1602 1603 1604 1604 1605 1606
1494 1503 1504 1499 1497 1494 1491 1489 1492 1500 1504 1507 1513 1518 1521 1527 1530 1527 1526 1527 1526 1531 1535 1533 1536 1538 1535 1532 1528 1527 1529 1530 1532 1533 1535 1537 1540 1543 1544 1547 1550 1550 1553 1555 1557 1559 1561 1563 1565 1566 1568 1569 1570 1572 1574 1576 1577 1578 1579 1580 1581 1582 1583 1584 1585 1586 1588 1589 1590 1592 1593 1594 1595 1597 1597 1598 1599 1599 1600 1601 1602 1603 1604 1605 1605 1606
1499 1501 1497 1491 1489 1488 1487 1485 1488 1497 1503 1507 1512 1517 1525 1527 1529 1530 1528 1528 1528 1532 1536 1535 1537 1540 1536 1532 1529 1529 1530 1530 1532 1533 1534 1536 1539 1541 1543 1546 1548 1550 1552 1554 1556 1558 1560 1563 1564 1566 1568 1569 1571 1572 1574 1575 1576 1578 1579 1579 1580 1582 1583 1584 1585 1586 1588 1590 1591 1592 1593 1594 1595 1597 1598 1599 1599 1599 1600 1601 1602 1603 1604 1605 1606 1606
1502 1497 1489 1485 1484 1486 1487 1484 1487 1495 1501 1506 1510 1516 1525 1525 1527 1535 1534 1531 1530 1531 1535 1537 1539 1540 1536 1533 1531 1530 1531 1531 1532 1534 1535 1536 1538 1540 1542 1544 1547 1549 1551 1553 1555 1557 1560 1562 1563 1565 1567 1569 1571 1572 1573 1575 1576 1577 1578 1579 1580 1581 1583 1584 1585 1587 1588 1589 1591 1592 1594 1594 1595 1597 1598 1599 1599 1600 1600 1601 1602 1603 1604 1605 1606 1607
1494 1485 1480 1481 1482 1483 1486 1485 1488 1498 1502 1503 1506 1511 1519 1520 1519 1526 1532 1532 1532 1533 1534 1538 1547 1545 1537 1537 1535 1531 1531 1531 1532 1534 1535 1536 1537 1539 1541 1544 1546 1548 1550 1552 1554 1556 1558 1561 1562 1564 1567 1568 1570 1571 1572 1574 1575 1576 1577 1579 1580 1581 1583 1584 1585 1587 1588 1589 1590 1592 1593 1594 1595 1597 1597 1598 1599 1599 1600 1601 1602 1603 1604 1605 1606 1606
1486 1476 1474 1480 1481 1481 1485 1486 1486 1495 1503 1503 1501 1502 1508 1513 1515 1521 1529 1531 1537 1543 1536 1537 1555 1555 1539 1538 1539 1534 1533 1533 1532 1533 1534 1535 1537 1538 1540 1542 1545 1548 1550 1552 1553 1555 1557 1559 1561 1563 1566 1568 1569 1570 1572 1573 1574 1575 1577 1578 1580 1581 1583 1584 1585 1586 1588 1589 1590 1591 1592 1593 1594 1596 1597 1597 1598 1599 1600 1601 1602 1603 1604 1605 1606 1606
1479 1472 1471 1477 1481 1481 1484 1485 1482 1487 1500 1503 1495 1494 1501 1508 1515 1523 1526 1530 1539 1544 1535 1533 1549 1555 1545 1540 1538 1535 1536 1535 1533 1533 1533 1534 1536 1537 1539 1541 1544 1546 1549 1552 1553 1555 1556 1558 1560 1562 1564 1566 1568 1570 1571 1572 1573 1575 1576 1578 1579 1581 1582 1583 1584 1586 1587 1589 1590 1591 1592 1593 1594 1595 1596 1597 1598 1599 1600 1601 1602 1603 1604 1605 1605 1606
1474 1473 1473 1474 1478 1481 1484 1486 1479 1478 1496 1502 1489 1489 1501 1506 1515 1522 1525 1531 1535 1535 1536 1536 1540 1549 1550 1542 1535 1535 1538 1537 1535 1534 1533 1534 1535 1537 1538 1540 1543 1545 1548 1550 1553 1554 1555 1557 1559 1561 1563 1565 1567 1569 1570 1571 1573 1574 1575 1577 1579 1580 1581 1583 1584 1585 1587 1588 1590 1591 1592 1593 1594 1595 1596 1597 1598 1599 1600 1601 1602 1603 1604 1605 1605 1606
1470 1473 1474 1472 1476 1482 1481 1480 1475 1476 1494 1501 1491 1492 1501 1506 1514 1519 1525 1534 1533 1534 1545 1543 1537 1549 1553 1540 1533 1536 1538 1539 1537 1534 1533 1533 1534 1536 1537 1540 1542 1544 1547 1549 1551 1553 1554 1556 1558 1560 1563 1564 1566 1568 1570 1570 1572 1573 1575 1576 1578 1579 1581 1582 1583 1585 1586 1588 1589 1591 1592 1593 1594 1595 1596 1597 1598 1599 1600 1601 1602 1603 1604 1604 1605 1606
1467 1469 1467 1467 1474 1478 1474 1471 1470 1478 1493 1496 1491 1497 1504 1509 1516 1520 1527 1534 1536 1541 1548 1543 1537 1548 1553 1542 1537 1540 1539 1538 1536 1533 1532 1532 1534 1535 1536 1539 1541 1543 1545 1548 1550 1552 1554 1555 1558 1560 1562 1564 1565 1567 1569 1570 1571 1573 1574 1575 1577 1578 1580 1581 1583 1584 1585 1587 1589 1590 1591 1592 1593 1595 1596 1597 1598 1599 1600 1601 1602 1602 1603 1604 1605 1605
1465 1463 1461 1463 1467 1469 1467 1468 1470 1478 1489 1491 1492 1500 1510 1517 1520 1525 1530 1533 1544 1550 1542 1537 1535 1542 1552 1545 1536 1537 1534 1532 1532 1532 1532 1531 1533 1534 1535 1538 1540 1542 1544 1547 1549 1551 1553 1555 1557 1560 1562 1563 1564 1566 1567 1569 1570 1572 1573 1574 1576 1577 1579 1580 1582 1584 1585 1586 1588 1589 1590 1591 1593 1594 1595 1596 1597 1598 1599 1600 1601 1602 1603 1604 1605 1605
1465 1465 1463 1460 1462 1462 1464 1469 1472 1476 1483 1490 1495 1501 1516 1528 1528 1534 1539 1540 1553 1554 1537 1532 1533 1539 1550 1543 1531 1530 1527 1525 1528 1530 1530 1530 1531 1533 1534 1537 1539 1541 1543 1545 1547 1549 1551 1554 1556 1558 1561 1562 1562 1564 1566 1568 1569 1571 1572 1574 1575 1576 1578 1579 1581 1583 1584 1586 1587 1588 1590 1591 1592 1593 1594 1595 1596 1597 1598 1599 1600 1601 1602 1603 1604 1605
1470 1467 1463 1460 1461 1461 1468 1476 1479 1481 1486 1492 1496 1501 1520 1538 1541 1547 1553 1551 1555 1552 1538 1532 1535 1543 1545 1533 1525 1525 1523 1522 1523 1524 1527 1528 1529 1531 1532 1535 1537 1539 1541 1543 1545 1547 1549 1552 1554 1557 1559 1560 1561 1562 1565 1566 1568 1570 1571 1573 1574 1575 1577 1579 1580 1582 1583 1585 1586 1588 1589 1590 1591 1592 1594 1595 1596 1597 1598 1599 1600 1601 1602 1603 1603 1604
1479 1471 1462 1465 1466 1461 1468 1480 1486 1490 1494 1496 1496 1500 1516 1534 1547 1556 1558 1554 1553 1550 1540 1533 1536 1545 1540 1525 1519 1518 1517 1519 1519 1521 1525 1526 1528 1530 1531 1534 1536 1537 1540 1542 1544 1545 1547 1550 1553 1555 1557 1559 1560 1561 1563 1565 1567 1569 1570 1572 1573 1575 1576 1578 1579 1581 1582 1584 1585 1587 1588 1590 1591 1591 1593 1594 1595 1597 1597 1598 1600 1600 1601 1602 1603 1604
1489 1487 1471 1468 1470 1464 1466 1473 1478 1483 1488 1488 1484 1488 1502 1514 1530 1547 1553 1554 1553 1548 1544 1541 1540 1543 1537 1525 1516 1513 1513 1516 1519 1521 1524 1526 1527 1529 1531 1533 1534 1536 1538 1541 1542 1544 1546 1548 1551 1554 1556 1558 1559 1560 1562 1564 1566 1568 1569 1571 1573 1574 1576 1577 1579 1580 1582 1583 1584 1586 1588 1589 1590 1591 1592 1594 1595 1596 1597 1598 1599 1600 1601 1602 1603 1603
1486 1486 1467 1460 1462 1461 1466 1466 1466 1477 1484 1479 1473 1484 1497 1496 1504 1524 1536 1537 1541 1546 1547 1544 1538 1530 1525 1520 1512 1511 1514 1515 1519 1522 1524 1527 1529 1529 1531 1533 1533 1534 1536 1539 1541 1543 1545 1547 1550 1552 1554 1556 1558 1559 1560 1562 1564 1566 1568 1570 1572 1573 1575 1576 1578 1579 1581 1582 1584 1585 1587 1588 1590 1591 1592 1593 1594 1595 1596 1598 1599 1600 1601 1602 1602 1603
1487 1482 1461 1458 1461 1458 1463 1463 1462 1475 1484 1478 1478 1486 1486 1480 1489 1515 1529 1525 1529 1546 1547 1540 1536 1529 1524 1521 1513 1512 1515 1516 1519 1522 1524 1528 1530 1530 1531 1532 1532 1533 1534 1537 1539 1541 1544 1546 1548 1551 1553 1555 1557 1558 1559 1561 1563 1565 1567 1569 1571 1573 1574 1575 1577 1579 1580 1582 1583 1585 1586 1588 1589 1590 1592 1593 1594 1595 1596 1597 1598 1599 1600 1601 1602 1603
1485 1484 1465 1460 1466 1461 1457 1461 1461 1464 1472 1479 1486 1482 1477 1480 1487 1501 1525 1534 1537 1549 1547 1538 1538 1536 1533 1529 1518 1515 1517 1518 1518 1519 1521 1525 1527 1529 1529 1529 1531 1531 1532 1535 1537 1539 1542 1544 1547 1549 1551 1553 1555 1557 1558 1560 1562 1564 1566 1568 1570 1571 1573 1574 1576 1578 1580 1581 1583 1584 1585 1587 1588 1590 1591 1592 1593 1594 1595 1597 1598 1599 1600 1601 1602 1603
1476 1487 1472 1457 1464 1463 1456 1464 1471 1465 1463 1471 1476 1472 1479 1498 1501 1498 1515 1532 1540 1550 1548 1538 1536 1533 1529 1526 1520 1518 1518 1517 1517 1517 1519 1522 1524 1526 1527 1527 1529 1529 1531 1533 1535 1537 1540 1542 1545 1547 1549 1552 1554 1556 1558 1559 1561 1563 1565 1567 1569 1571 1572 1574 1576 1577 1579 1580 1582 1583 1584 1586 1588 1589 1591 1592 1593 1594 1595 1596 1597 1598 1599 1600 1601 1602
1472 1486 1483 1460 1457 1462 1461 1470 1480 1476 1468 1467 1470 1470 1476 1489 1497 1498 1501 1508 1526 1546 1547 1540 1540 1531 1518 1512 1513 1514 1514 1513 1515 1516 1516 1517 1519 1522 1524 1524 1526 1528 1530 1531 1533 1536 1538 1540 1543 1545 1548 1550 1553 1555 1557 1559 1561 1562 1564 1566 1568 1570 1572 1573 1575 1576 1578 1579 1581 1582 1584 1585 1587 1588 1590 1591 1592 1593 1594 1596 1596 1597 1599 1600 1601 1601
1471 1483 1488 1471 1458 1465 1472 1473 1476 1477 1475 1475 1478 1481 1480 1480 1483 1490 1493 1492 1507 1533 1542 1542 1543 1527 1506 1500 1504 1507 1508 1508 1510 1512 1513 1514 1516 1518 1521 1522 1523 1527 1529 1530 1531 1534 1536 1539 1542 1544 1547 1549 1552 1555 1556 1557 1559 1561 1563 1565 1567 1569 1570 1572 1574 1575 1577 1578 1580 1581 1583 1584 1586 1588 1589 1590 1592 1593 1594 1595 1596 1597 1598 1599 1600 1601
1477 1481 1486 1480 1472 1474 1474 1466 1462 1466 1469 1474 1480 1480 1480 1481 1484 1496 1505 1493 1490 1509 1524 1530 1535 1522 1502 1496 1497 1499 1503 1504 1505 1508 1510 1511 1513 1516 1519 1520 1522 1526 1529 1529 1530 1533 1535 1537 1541 1543 1545 1548 1551 1553 1555 1557 1558 1561 1563 1564 1566 1568 1569 1571 1572 1574 1576 1578 1579 1581 1582 1584 1585 1587 1588 1589 1591 1592 1593 1594 1595 1597 1598 1599 1600 1601
1476 1479 1483 1483 1478 1474 1468 1459 1457 1459 1460 1466 1472 1473 1474 1477 1482 1497 1508 1498 1489 1498 1505 1513 1527 1521 1501 1493 1493 1495 1498 1500 1503 1505 1507 1510 1511 1514 1517 1519 1522 1526 1527 1528 1529 1532 1534 1536 1539 1542 1544 1547 1549 1552 1554 1556 1558 1560 1562 1564 1566 1567 1569 1571 1572 1573 1575 1577 1579 1580 1581 1583 1584 1586 1587 1589 1590 1591 1593 1594 1595 1596 1597 1598 1599 1600
1476 1481 1486 1487 1479 1469 1462 1457 1455 1455 1459 1467 1470 1468 1471 1474 1475 1482 1488 1487 1493 1501 1503 1515 1531 1521 1499 1492 1493 1493 1495 1498 1501 1503 1505 1509 1511 1513 1517 1519 1523 1525 1525 1526 1528 1530 1533 1535 1538 1541 1543 1545 1548 1551 1554 1555 1557 1559 1561 1563 1565 1567 1568 1570 1572 1573 1574 1576 1578 1579 1581 1582 1583 1585 1586 1588 1589 1591 1592 1593 1594 1595 1597 1598 1599 1599
1484 1487 1491 1498 1499 1491 1480 1474 1471 1466 1466 1471 1470 1467 1467 1468 1468 1473 1476 1480 1491 1497 1497 1511 1526 1516 1499 1494 1493 1492 1494 1496 1499 1502 1505 1508 1511 1515 1518 1521 1522 1523 1522 1524 1526 1528 1531 1534 1536 1539 1541 1544 1547 1550 1553 1555 1557 1558 1560 1562 1564 1566 1568 1570 1571 1573 1574 1576 1577 1578 1580 1581 1583 1584 1585 1587 1589 1590 1591 1593 1594 1595 1596 1597 1598 1598
1486 1489 1491 1504 1517 1516 1508 1502 1494 1485 1477 1472 1468 1466 1466 1464 1466 1472 1478 1486 1493 1492 1490 1501 1514 1511 1500 1495 1495 1494 1496 1498 1500 1503 1506 1508 1512 1515 1518 1521 1522 1522 1523 1524 1524 1526 1529 1532 1535 1537 1540 1543 1546 1549 1552 1554 1556 1557 1559 1561 1563 1565 1568 1569 1571 1572 1574 1575 1576 1578 1579 1580 1582 1584 1585 1587 1588 1590 1591 1592 1593 1594 1595 1596 1597 1598
1485 1488 1488 1495 1503 1505 1503 1497 1487 1483 1483 1478 1471 1468 1466 1464 1465 1468 1478 1488 1490 1492 1497 1499 1503 1507 1504 1498 1497 1497 1497 1500 1502 1504 1508 1511 1514 1517 1519 1521 1522 1522 1524 1524 1524 1525 1528 1530 1533 1536 1539 1542 1545 1548 1550 1553 1555 1557 1559 1561 1563 1565 1566 1568 1570 1572 1573 1575 1576 1577 1579 1580 1581 1583 1585 1586 1587 1589 1590 1591 1592 1593 1594 1595 1596 1597
1486 1490 1488 1488 1489 1488 1486 1482 1476 1475 1477 1475 1472 1471 1467 1464 1465 1471 1480 1482 1481 1493 1507 1501 1494 1502 1503 1497 1496 1497 1498 1501 1503 1504 1506 1508 1511 1515 1517 1519 1522 1523 1525 1525 1524 1525 1527 1529 1532 1534 1538 1541 1544 1547 1549 1552 1554 1556 1558 1560 1562 1564 1566 1568 1569 1570 1572 1574 1575 1577 1578 1579 1581 1582 1584 1586 1587 1588 1590 1590 1591 1592 1593 1594 1594 1595
1487 1492 1488 1486 1487 1483 1479 1476 1473 1473 1472 1472 1474 1476 1473 1470 1473 1479 1482 1479 1477 1489 1501 1497 1493 1497 1497 1493 1495 1496 1497 1500 1502 1502 1503 1503 1507 1512 1516 1517 1519 1521 1525 1526 1526 1525 1527 1529 1530 1532 1536 1539 1542 1545 1547 1550 1552 1554 1557 1559 1561 1563 1565 1567 1569 1570 1571 1573 1574 1576 1577 1579 1580 1581 1583 1585 1586 1587 1588 1589 1590 1590 1591 1592 1593 1594
1488 1491 1487 1487 1489 1484 1480 1477 1472 1471 1474 1475 1479 1480 1479 1479 1482 1483 1483 1480 1479 1484 1490 1493 1496 1497 1495 1494 1495 1496 1497 1499 1500 1502 1503 1504 1508 1512 1516 1517 1517 1519 1524 1526 1527 1526 1528 1530 1531 1532 1534 1537 1540 1543 1545 1548 1550 1552 1554 1556 1558 1561 1562 1564 1567 1569 1571 1572 1573 1575 1576 1577 1579 1580 1582 1583 1584 1586 1587 1588 1589 1589 1589 1590 1591 1593
1489 1492 1487 1486 1490 1488 1482 1476 1473 1474 1479 1483 1486 1486 1483 1483 1485 1487 1489 1488 1489 1494 1496 1497 1502 1503 1498 1495 1496 1498 1500 1501 1502 1504 1505 1507 1511 1514 1516 1517 1518 1521 1524 1527 1528 1527 1528 1531 1532 1532 1532 1535 1538 1541 1544 1547 1548 1550 1553 1555 1557 1559 1560 1562 1564 1566 1569 1571 1572 1573 1575 1576 1577 1578 1580 1581 1582 1584 1585 1586 1587 1588 1588 1589 1590 1592
1489 1494 1490 1488 1497 1496 1483 1478 1479 1478 1480 1486 1492 1494 1491 1488 1491 1495 1497 1497 1499 1503 1504 1505 1510 1512 1504 1498 1500 1502 1505 1508 1511 1511 1510 1510 1512 1514 1515 1516 1517 1520 1522 1525 1527 1527 1529 1531 1530 1530 1532 1536 1539 1541 1543 1545 1547 1549 1551 1552 1555 1557 1559 1561 1561 1563 1566 1568 1570 1571 1572 1574 1575 1576 1577 1578 1579 1580 1581 1583 1584 1585 1587 1587 1589 1590
1491 1495 1493 1495 1505 1501 1487 1485 1485 1486 1496 1505 1502 1499 1498 1496 1497 1500 1502 1502 1503 1504 1509 1514 1516 1513 1506 1502 1505 1508 1509 1513 1516 1517 1517 1516 1514 1515 1516 1516 1518 1519 1520 1522 1525 1527 1529 1531 1532 1533 1535 1538 1540 1541 1543 1545 1546 1548 1550 1551 1552 1554 1556 1559 1559 1559 1562 1564 1567 1568 1569 1571 1572 1573 1574 1574 1575 1576 1577 1579 1580 1582 1584 1586 1587 1588
1492 1494 1494 1496 1503 1504 1494 1487 1490 1504 1522 1522 1506 1497 1500 1500 1501 1505 1508 1508 1507 1505 1508 1513 1512 1510 1509 1509 1511 1513 1513 1512 1513 1516 1519 1520 1519 1518 1518 1519 1521 1521 1521 1522 1524 1526 1527 1529 1533 1535 1537 1539 1540 1540 1542 1545 1546 1547 1548 1549 1550 1551 1552 1554 1555 1555 1557 1560 1563 1565 1566 1567 1568 1568 1570 1570 1572 1573 1574 1575 1577 1579 1581 1584 1585 1586
1494 1495 1497 1495 1499 1503 1496 1493 1512 1532 1530 1514 1501 1497 1499 1499 1501 1506 1510 1510 1510 1510 1510 1511 1512 1513 1514 1514 1514 1516 1517 1515 1514 1515 1518 1522 1522 1520 1520 1520 1521 1522 1522 1523 1524 1526 1527 1529 1532 1535 1537 1539 1540 1541 1542 1544 1545 1546 1547 1547 1548 1549 1549 1551 1552 1552 1554 1557 1559 1561 1563 1563 1564 1564 1566 1567 1568 1569 1571 1572 1574 1576 1578 1580 1582 1583
1495 1498 1500 1497 1497 1502 1501 1505 1526 1535 1518 1504 1503 1501 1498 1500 1503 1509 1516 1517 1514 1514 1515 1515 1515 1515 1516 1517 1517 1518 1519 1519 1518 1517 1519 1523 1524 1524 1523 1523 1522 1523 1523 1524 1525 1527 1528 1530 1533 1536 1538 1539 1539 1540 1542 1545 1546 1545 1545 1545 1546 1546 1548 1550 1551 1553 1555 1555 1555 1558 1560 1561 1561 1561 1562 1563 1564 1565 1566 1568 1570 1572 1574 1575 1578 1580
1494 1497 1501 1502 1500 1502 1507 1512 1517 1520 1517 1514 1513 1507 1504 1507 1507 1511 1523 1525 1519 1517 1518 1518 1517 1518 1518 1519 1519 1520 1520 1521 1523 1523 1523 1524 1526 1527 1528 1527 1526 1527 1527 1527 1528 1529 1530 1531 1533 1536 1538 1538 1538 1539 1542 1544 1545 1543 1542 1543 1544 1546 1548 1549 1552 1555 1556 1554 1553 1555 1557 1558 1558 1559 1559 1560 1560 1561 1562 1564 1566 1568 1570 1572 1574 1577
1492 1496 1500 1505 1504 1500 1507 1516 1520 1527 1533 1528 1518 1510 1506 1507 1505 1506 1518 1528 1523 1519 1520 1520 1519 1519 1519 1519 1520 1521 1520 1523 1529 1530 1527 1527 1527 1528 1528 1527 1528 1530 1531 1531 1531 1530 1531 1532 1533 1534 1536 1536 1537 1539 1540 1541 1541 1541 1542 1543 1545 1548 1549 1549 1551 1553 1554 1553 1553 1554 1554 1554 1555 1556 1557 1558 1558 1559 1560 1561 1562 1564 1567 1570 1572 1574
1492 1495 1496 1503 1507 1503 1507 1519 1528 1535 1536 1527 1518 1512 1507 1507 1505 1503 1518 1534 1528 1521 1522 1521 1520 1521 1519 1519 1520 1519 1520 1528 1534 1533 1530 1529 1529 1528 1528 1528 1528 1529 1531 1531 1532 1532 1531 1531 1532 1534 1535 1535 1536 1538 1539 1540 1541 1543 1544 1545 1546 1546 1547 1547 1549 1550 1551 1552 1552 1553 1553 1552 1553 1554 1556 1557 1558 1559 1560 1559 1560 1562 1564 1567 1569 1570
1496 1498 1499 1504 1509 1504 1507 1520 1530 1532 1530 1523 1517 1513 1509 1507 1504 1511 1533 1542 1529 1521 1523 1522 1520 1521 1520 1519 1520 1519 1523 1529 1532 1531 1531 1531 1531 1530 1530 1530 1530 1531 1531 1531 1532 1533 1533 1533 1533 1534 1536 1536 1537 1538 1539 1540 1542 1543 1544 1545 1545 1544 1544 1546 1547 1548 1549 1550 1551 1552 1551 1550 1551 1552 1553 1555 1557 1559 1559 1558 1560 1563 1564 1564 1564 1566
1502 1502 1503 1507 1509 1504 1510 1525 1533 1530 1525 1520 1516 1513 1508 1506 1513 1529 1543 1538 1525 1523 1525 1522 1521 1522 1520 1520 1521 1522 1525 1527 1528 1530 1532 1532 1532 1532 1531 1531 1532 1533 1534 1534 1535 1535 1535 1536 1536 1536 1537 1538 1538 1538 1539 1540 1541 1542 1543 1544 1544 1544 1544 1545 1546 1547 1548 1548 1550 1551 1550 1550 1551 1551 1551 1553 1555 1557 1558 1558 1560 1562 1562 1562 1562 1563
1510 1508 1508 1511 1513 1510 1514 1526 1534 1533 1526 1519 1516 1512 1507 1513 1530 1539 1535 1527 1525 1525 1524 1523 1524 1523 1522 1523 1523 1524 1527 1528 1529 1531 1532 1532 1533 1533 1532 1532 1533 1534 1535 1536 1537 1537 1537 1538 1538 1539 1539 1539 1539 1539 1540 1540 1541 1541 1542 1543 1544 1545 1545 1546 1547 1547 1547 1548 1549 1550 1550 1551 1551 1551 1552 1553 1554 1556 1557 1557 1558 1558 1558 1560 1562 1562
1514 1515 1517 1517 1516 1517 1523 1533 1542 1542 1530 1517 1516 1516 1515 1523 1533 1532 1525 1526 1527 1525 1524 1525 1526 1524 1525 1526 1526 1527 1529 1529 1531 1532 1532 1533 1533 1533 1534 1535 1535 1536 1537 1537 1538 1539 1538 1539 1540 1540 1541 1541 1541 1541 1541 1541 1541 1541 1542 1543 1543 1545 1546 1547 1547 1548 1548 1549 1549 1550 1550 1551 1551 1552 1553 1554 1555 1557 1557 1557 1557 1557 1558 1559 1560 1562
1513 1515 1521 1521 1518 1522 1533 1541 1541 1538 1529 1520 1520 1524 1525 1527 1528 1527 1526 1528 1527 1526 1527 1527 1527 1528 1529 1528 1529 1531 1531 1531 1532 1533 1533 1534 1534 1534 1536 1537 1537 1538 1538 1538 1538 1539 1539 1540 1541 1541 1542 1542 1542 1543 1543 1542 1541 1541 1542 1543 1544 1546 1547 1547 1548 1549 1550 1550 1551 1551 1552 1553 1553 1554 1555 1556 1557 1558 1559 1559 1559 1559 1559 1559 1559 1561
1515 1513 1518 1520 1519 1521 1529 1533 1531 1529 1528 1526 1524 1526 1527 1528 1528 1528 1529 1528 1528 1529 1529 1528 1529 1530 1530 1531 1532 1533 1533 1534 1534 1534 1534 1535 1535 1535 1537 1538 1539 1539 1539 1539 1539 1539 1540 1541 1541 1542 1542 1543 1543 1543 1543 1543 1543 1542 1542 1544 1545 1546 1548 1548 1549 1550 1550 1551 1552 1553 1554 1555 1556 1556 1556 1558 1559 1560 1561 1561 1561 1560 1561 1560 1560 1561
1513 1511 1514 1519 1521 1522 1525 1528 1527 1528 1529 1528 1528 1529 1529 1530 1530 1530 1529 1529 1530 1531 1530 1530 1531 1530 1530 1532 1533 1533 1534 1535 1535 1535 1536 1536 1536 1537 1538 1539 1540 1540 1540 1540 1540 1540 1541 1541 1541 1542 1542 1543 1543 1544 1544 1545 1545 1544 1544 1545 1546 1547 1548 1549 1550 1550 1551 1552 1552 1553 1555 1556 1557 1557 1558 1559 1560 1561 1561 1561 1561 1561 1562 1561 1561 1562
1513 1513 1514 1518 1523 1527 1529 1529 1527 1528 1529 1529 1530 1531 1531 1531 1532 1531 1531 1531 1531 1531 1532 1532 1532 1532 1532 1533 1533 1534 1535 1535 1535 1537 1537 1537 1538 1539 1539 1540 1541 1541 1542 1542 1542 1542 1542 1542 1542 1543 1543 1543 1544 1545 1545 1546 1546 1546 1547 1547 1547 1548 1549 1549 1551 1552 1553 1554 1554 1555 1556 1556 1557 1558 1558 1559 1560 1560 1561 1561 1561 1562 1563 1563 1563 1563
1514 1514 1516 1519 1522 1526 1529 1528 1526 1529 1531 1531 1532 1533 1533 1533 1533 1532 1532 1533 1533 1533 1533 1533 1534 1534 1534 1534 1534 1535 1536 1536 1537 1537 1537 1538 1540 1540 1540 1542 1543 1543 1543 1543 1543 1544 1544 1544 1544 1544 1544 1545 1546 1547 1547 1548 1548 1548 1549 1549 1549 1549 1550 1550 1552 1553 1554 1555 1556 1557 1557 1557 1557 1557 1558 1559 1560 1560 1560 1561 1562 1563 1563 1564 1564 1564
1514 1515 1517 1521 1524 1527 1528 1527 1527 1530 1532 1532 1533 1534 1534 1535 1535 1534 1534 1534 1534 1534 1535 1535 1535 1536 1536 1536 1536 1536 1536 1537 1538 1538 1538 1539 1540 1540 1541 1542 1543 1543 1544 1544 1544 1545 1545 1546 1546 1546 1547 1547 1548 1549 1549 1549 1550 1550 1550 1550 1551 1550 1551 1551 1552 1553 1554 1554 1556 1557 1557 1557 1557 1558 1558 1559 1560 1561 1561 1562 1563 1564 1564 1564 1565 1565
1514 1517 1518 1521 1527 1531 1529 1527 1527 1530 1533 1534 1534 1535 1536 1536 1536 1536 1536 1535 1535 1536 1536 1536 1537 1537 1538 1538 1538 1538 1538 1539 1539 1539 1540 1540 1540 1541 1542 1542 1543 1544 1544 1544 1545 1546 1546 1547 1548 1548 1549 1549 1550 1551 1551 1551 1551 1551 1552 1552 1552 1551 1551 1552 1552 1553 1553 1554 1555 1556 1557 1557 1558 1558 1559 1560 1560 1561 1562 1563 1564 1565 1565 1565 1566 1566
1515 1517 1517 1520 1526 1528 1527 1525 1526 1529 1532 1533 1534 1535 1536 1537 1537 1537 1537 1537 1537 1537 1537 1537 1538 1538 1539 1539 1539 1540 1540 1540 1540 1541 1540 1540 1541 1542 1542 1543 1544 1544 1544 1545 1545 1546 1547 1548 1548 1549 1550 1550 1551 1552 1552 1552 1552 1552 1553 1553 1553 1552 1553 1552 1552 1553 1553 1554 1555 1556 1557 1558 1558 1558 1559 1560 1560 1561 1562 1563 1564 1565 1565 1566 1566 1566